Location: Coopersdale
(40.3556°N, 78.9372°W)
Time: 03:21:46
(UTC+00:00)

Tiros 1 despin weight - Pass Details

Date: 22 January 2021
Orbit: 593 x 642 km, 48.2° (Epoch: 02 March)

Event Time Altitude Azimuth Distance (km) Brightness Sun altitude
Rises 21:10:12 0° 259° (WSW) 2,879 ? 10.9°
Reaches altitude 10° 21:12:36 10° 265° (W) 1,967 ? 10.6°
Maximum altitude 21:16:57 47° 339° (NNW) 810 ? 9.9°
Drops below altitude 10° 21:21:16 10° 54° (NE) 1,944 ? 9.2°
Sets 21:23:37 0° 61° (ENE) 2,842 ? 8.9°
